EW9366 Weather Reports


Display with metric or nautical units.
time (UTC)temp
F
wind
direction
speed
MPH
gust
MPH
rain 1hr
in
rain 24hr
in
rain mn
in
humidity
%
barometer
mb
20260505022907 65 140 0.0 2.0 0.00 0.00 0.00 77 1006.0
20260505022354 65 139 0.0 0.0 0.00 0.00 0.00 77 1005.9
20260505021853 65 139 0.0 1.0 0.00 0.00 0.00 77 1006.1
20260505021352 65 139 0.0 1.0 0.00 0.00 0.00 77 1005.9
20260505021338 65 139 0.0 1.0 0.00 0.00 0.00 77 1005.9
20260505020327 65 148 0.0 0.0 0.00 0.00 0.00 77 1005.8
20260505015824 65 159 0.0 0.0 0.00 0.00 0.00 76 1005.7
20260505015323 65 159 0.0 0.0 0.00 0.00 0.00 76 1005.6
20260505015238 65 159 0.0 0.0 0.00 0.00 0.00 76 1005.7
20260505014238 66 159 0.0 0.0 0.00 0.00 0.00 75 1005.5
20260505013740 66 159 0.0 0.0 0.00 0.00 0.00 75 1005.4
20260505013224 66 159 0.0 0.0 0.00 0.00 0.00 74 1005.6
20260505012722 67 159 0.0 0.0 0.00 0.00 0.00 73 1005.7
20260505012223 67 159 0.0 0.0 0.00 0.00 0.00 72 1005.5
20260505012206 68 159 0.0 0.0 0.00 0.00 0.00 72 1005.4
20260505011221 68 159 0.0 0.0 0.00 0.00 0.00 71 1005.3
20260505010720 69 209 0.0 0.0 0.00 0.00 0.00 70 1005.2
20260505010201 69 209 0.0 2.0 0.00 0.00 0.00 69 1005.1
20260505005659 70 138 0.0 2.0 0.00 0.00 0.00 68 1005.1
20260505005127 70 211 0.0 2.0 0.00 0.00 0.00 68 1005.1
20260505004625 71 200 0.0 2.0 0.00 0.00 0.00 67 1005.1
20260505004123 71 209 0.0 6.0 0.00 0.00 0.00 67 1005.1
20260505003623 71 128 0.0 6.0 0.00 0.00 0.00 66 1005.0
20260505003120 71 129 0.0 1.0 0.00 0.00 0.00 66 1005.1
20260505002620 72 130 0.0 2.0 0.00 0.00 0.00 66 1005.1
20260505002120 72 145 0.0 2.0 0.00 0.00 0.00 65 1005.1
20260505001617 73 195 0.0 3.0 0.00 0.00 0.00 64 1005.1
20260505001119 73 150 1.0 3.0 0.00 0.00 0.00 63 1005.2
20260505000553 74 205 1.0 5.0 0.00 0.00 0.00 63 1005.2
20260505000038 74 212 1.0 5.0 0.00 0.00 0.00 62 1005.2
20260504235536 74 208 2.0 6.0 0.00 0.00 0.00 61 1004.9
20260504235039 75 210 1.0 6.0 0.00 0.00 0.00 61 1004.9
20260504234511 75 236 1.0 4.0 0.00 0.00 0.00 61 1005.0
20260504233948 75 136 1.0 3.0 0.00 0.00 0.00 61 1005.1
20260504233425 76 204 2.0 5.0 0.00 0.00 0.00 60 1005.0
20260504232925 76 192 2.0 5.0 0.00 0.00 0.00 59 1005.1
20260504232426 76 187 2.0 5.0 0.00 0.00 0.00 60 1005.1
20260504231908 76 209 2.0 7.0 0.00 0.00 0.00 60 1005.1
20260504231352 76 210 2.0 7.0 0.00 0.00 0.00 58 1005.2
20260504230855 77 185 3.0 7.0 0.00 0.00 0.00 57 1005.1
20260504230331 78 148 2.0 7.0 0.00 0.00 0.00 57 1005.2
20260504225830 78 122 2.0 4.0 0.00 0.00 0.00 58 1005.2
20260504225331 78 212 2.0 4.0 0.00 0.00 0.00 58 1005.2
20260504224828 78 214 2.0 7.0 0.00 0.00 0.00 58 1005.1
20260504224327 78 154 2.0 7.0 0.00 0.00 0.00 57 1005.0
20260504223829 78 113 2.0 7.0 0.00 0.00 0.00 57 1005.1
20260504223809 78 136 3.0 7.0 0.00 0.00 0.00 57 1005.0
20260504222827 78 134 3.0 8.0 0.00 0.00 0.00 58 1005.1
20260504222326 78 164 3.0 8.0 0.00 0.00 0.00 57 1005.0
20260504221827 78 224 2.0 7.0 0.00 0.00 0.00 58 1005.1
20260504221302 78 219 2.0 6.0 0.00 0.00 0.00 57 1005.1
20260504220737 78 156 2.0 4.0 0.00 0.00 0.00 56 1005.1
20260504220224 78 167 2.0 6.0 0.00 0.00 0.00 56 1005.1
20260504215723 78 200 2.0 6.0 0.00 0.00 0.00 57 1005.2
20260504215223 79 195 2.0 6.0 0.00 0.00 0.00 56 1005.4
20260504214946 79 153 2.0 6.0 0.00 0.00 0.00 55 1005.5
20260504214458 79 217 3.0 7.0 0.00 0.00 0.00 57 1005.4
20260504214434 79 184 2.0 6.0 0.00 0.00 0.00 56 1005.2
20260504214351 79 137 2.0 6.0 0.00 0.00 0.00 59 1005.4
20260504214307 79 245 2.0 6.0 0.00 0.00 0.00 56 1005.3
20260504212655 79 217 3.0 7.0 0.00 0.00 0.00 57 1005.4
20260504212134 78 193 3.0 7.0 0.00 0.00 0.00 56 1005.5
20260504211634 78 188 3.0 7.0 0.00 0.00 0.00 56 1005.6
20260504211117 78 143 3.0 8.0 0.00 0.00 0.00 57 1005.6
20260504210621 78 178 3.0 8.0 0.00 0.00 0.00 55 1005.7
20260504210050 78 232 3.0 6.0 0.00 0.00 0.00 57 1005.9
20260504205550 78 210 3.0 6.0 0.00 0.00 0.00 56 1005.9
20260504205041 79 228 3.0 7.0 0.00 0.00 0.00 57 1006.0
20260504204540 79 240 3.0 7.0 0.00 0.00 0.00 56 1005.9
20260504204018 79 170 3.0 12.0 0.00 0.00 0.00 57 1006.0
20260504203520 79 150 3.0 12.0 0.00 0.00 0.00 55 1006.1
20260504203005 79 125 3.0 8.0 0.00 0.00 0.00 58 1006.3
20260504202506 79 214 3.0 8.0 0.00 0.00 0.00 55 1006.4
20260504202001 80 172 3.0 7.0 0.00 0.00 0.00 56 1006.4
20260504201503 80 193 2.0 7.0 0.00 0.00 0.00 55 1006.5
20260504201002 80 147 2.0 7.0 0.00 0.00 0.00 58 1006.6
20260504200441 79 226 3.0 7.0 0.00 0.00 0.00 57 1006.7
20260504195927 79 223 3.0 8.0 0.00 0.00 0.00 56 1006.7
20260504195409 79 211 3.0 7.0 0.00 0.00 0.00 57 1006.7
20260504194910 79 203 3.0 9.0 0.00 0.00 0.00 57 1006.8
20260504194404 79 245 3.0 9.0 0.00 0.00 0.00 56 1006.9
20260504193906 79 207 3.0 8.0 0.00 0.00 0.00 57 1006.9
20260504193356 79 221 4.0 8.0 0.00 0.00 0.00 57 1007.0
20260504192857 80 136 3.0 8.0 0.00 0.00 0.00 57 1006.9
20260504192336 80 128 2.0 7.0 0.00 0.00 0.00 56 1007.1
20260504191820 80 204 3.0 9.0 0.00 0.00 0.00 59 1007.2
20260504191320 79 210 3.0 9.0 0.00 0.00 0.00 57 1007.0
20260504190821 79 145 3.0 7.0 0.00 0.00 0.00 57 1007.0
20260504190306 79 239 3.0 7.0 0.00 0.00 0.00 59 1007.2
20260504190250 79 233 4.0 12.0 0.00 0.00 0.00 56 1007.2
20260504185306 79 147 3.0 12.0 0.00 0.00 0.00 58 1007.1
20260504184747 79 134 3.0 9.0 0.00 0.00 0.00 58 1007.2
20260504184243 79 221 3.0 9.0 0.00 0.00 0.00 57 1007.3
20260504183717 80 133 3.0 9.0 0.00 0.00 0.00 59 1007.3
20260504183646 79 209 3.0 7.0 0.00 0.00 0.00 59 1007.4
20260504182640 79 207 3.0 10.0 0.00 0.00 0.00 60 1007.4
20260504182134 79 164 3.0 10.0 0.00 0.00 0.00 59 1007.5
20260504181631 79 207 3.0 9.0 0.00 0.00 0.00 59 1007.6
20260504181132 79 203 2.0 6.0 0.00 0.00 0.00 60 1007.7
20260504180634 79 214 2.0 8.0 0.00 0.00 0.00 62 1007.6
20260504180113 78 204 3.0 8.0 0.00 0.00 0.00 59 1007.8
20260504175557 78 143 3.0 8.0 0.00 0.00 0.00 60 1007.9
20260504175548 78 222 3.0 8.0 0.00 0.00 0.00 57 1008.0
20260504174554 78 217 3.0 9.0 0.00 0.00 0.00 61 1008.1
20260504174043 78 186 3.0 9.0 0.00 0.00 0.00 57 1008.2
20260504173543 78 195 3.0 9.0 0.00 0.00 0.00 61 1008.2
20260504173044 78 207 3.0 7.0 0.00 0.00 0.00 57 1008.3
20260504172545 78 213 3.0 7.0 0.00 0.00 0.00 59 1008.4
20260504172042 78 143 3.0 8.0 0.00 0.00 0.00 57 1008.4
20260504171543 78 159 3.0 8.0 0.00 0.00 0.00 58 1008.3
20260504171042 78 226 2.0 7.0 0.00 0.00 0.00 57 1008.4
20260504170544 78 187 2.0 6.0 0.00 0.00 0.00 59 1008.4
20260504160310 76 224 2.0 7.0 0.00 0.00 0.00 58 1008.8
20260504151141 74 216 2.0 9.0 0.00 0.00 0.00 57 1009.1
20260504150640 74 214 3.0 9.0 0.00 0.00 0.00 58 1009.2
20260504150139 73 172 3.0 5.0 0.00 0.00 0.00 57 1009.2
20260504140911 73 204 1.0 5.0 0.00 0.00 0.00 59 1009.6
20260504140359 72 220 2.0 5.0 0.00 0.00 0.00 59 1009.7
20260504140347 72 147 2.0 5.0 0.00 0.00 0.00 58 1009.5
20260504130631 68 150 1.0 3.0 0.00 0.00 0.00 63 1010.0
20260504130104 68 180 1.0 3.0 0.00 0.00 0.00 64 1010.0
20260504120318 60 187 0.0 2.0 0.00 0.00 0.00 73 1009.8
20260504110638 59 194 0.0 2.0 0.00 0.00 0.00 72 1009.8
20260504110110 59 202 0.0 2.0 0.00 0.00 0.00 71 1009.8
20260504100325 60 200 1.0 3.0 0.00 0.00 0.00 70 1010.0
20260504090140 61 207 1.0 3.0 0.00 0.00 0.00 68 1010.4
20260504081508 62 212 0.0 3.0 0.00 0.00 0.00 67 1010.5
20260504081000 62 167 0.0 2.0 0.00 0.00 0.00 67 1010.5
20260504080458 62 203 0.0 2.0 0.00 0.00 0.00 67 1010.4
20260504080422 62 174 0.0 2.0 0.00 0.00 0.00 67 1010.5
20260504070111 61 213 0.0 2.0 0.00 0.00 0.00 67 1011.1
20260504050313 65 228 1.0 3.0 0.00 0.00 0.00 63 1012.3
20260504045748 65 233 0.0 2.0 0.00 0.00 0.00 64 1012.2
20260504045726 65 209 1.0 2.0 0.00 0.00 0.00 64 1012.3
20260504044731 65 188 1.0 2.0 0.00 0.00 0.00 64 1012.3
20260504044230 65 215 1.0 2.0 0.00 0.00 0.00 64 1012.3
20260504043732 65 205 0.0 2.0 0.00 0.00 0.00 64 1012.3
20260504043208 65 254 0.0 2.0 0.00 0.00 0.00 64 1012.4
20260504042658 65 214 0.0 2.0 0.00 0.00 0.00 64 1012.4
20260504042157 65 210 0.0 2.0 0.00 0.00 0.00 64 1012.3
20260504042141 65 216 0.0 2.0 0.00 0.00 0.00 64 1012.4
20260504041620 65 199 0.0 2.0 0.00 0.00 0.00 65 1012.4
20260504040630 65 222 0.0 2.0 0.00 0.00 0.00 65 1012.4
20260504040129 65 213 0.0 2.0 0.00 0.00 0.00 65 1012.4
20260504035626 65 203 0.0 2.0 0.00 0.00 0.00 65 1012.4
20260504035113 65 210 0.0 2.0 0.00 0.00 0.00 64 1012.4
20260504034550 65 211 0.0 2.0 0.00 0.00 0.00 65 1012.3
20260504034517 65 195 0.0 2.0 0.00 0.00 0.00 65 1012.4
20260504033534 65 217 0.0 2.0 0.00 0.00 0.00 65 1012.4
20260504033036 65 209 0.0 1.0 0.00 0.00 0.00 65 1012.4
20260504032517 65 203 0.0 2.0 0.00 0.00 0.00 65 1012.5
20260504032019 65 215 0.0 2.0 0.00 0.00 0.00 65 1012.4
20260504031508 65 200 0.0 2.0 0.00 0.00 0.00 65 1012.4
20260504031447 65 204 0.0 2.0 0.00 0.00 0.00 65 1012.3
20260504030446 65 206 0.0 2.0 0.00 0.00 0.00 66 1012.4
20260504025936 65 210 0.0 1.0 0.00 0.00 0.00 66 1012.4
20260504025911 65 204 0.0 1.0 0.00 0.00 0.00 67 1012.4
20260504025407 65 204 0.0 1.0 0.00 0.00 0.00 67 1012.3
20260504024421 65 207 0.0 1.0 0.00 0.00 0.00 67 1012.2
20260504023923 65 203 0.0 1.0 0.00 0.00 0.00 67 1012.1
20260504023422 65 207 0.0 1.0 0.00 0.00 0.00 67 1012.1